Weather History for KLXN - May, 2014

Change the Weather History Date:

Thursday, May 8, 2014

  Actual Average Record
Temperature  
Mean Temperature 51 °F -  
Max Temperature 58 °F 67 °F - (-1)
Min Temperature 43 °F 42 °F - (-1)
Degree Days  
Heating Degree Days 14    
Growing Degree Days 1 (Base 50)    
Moisture  
Dew Point 44 °F    
Average Humidity 77    
Maximum Humidity 93    
Minimum Humidity 61    
Precipitation  
Precipitation 0.06 in - - ()
Sea Level Pressure  
Sea Level Pressure 29.73 in    
Wind  
Wind Speed 16 mph (NNW)    
Max Wind Speed 30 mph    
Max Gust Speed 34 mph    
Visibility 9 miles    
Events Thunderstorm    
Averages and records for this station are not official NWS values.
T = Trace of Precipitation, MM = Missing Value Source: NWS Daily Summary

Daily Weather History Graph

Daily Weather History Graph

Search for Another Location

Airport or City:

Trip Planner

Search our weather history database for the weather conditions in past years. The results will help you decide how hot, cold, wet, or windy it might be!

Date:

Astronomy

May. 08, 2014 Rise Set
Actual Time 6:29 AM CDT 8:42 PM CDT
Civil Twilight 5:58 AM CDT 9:13 PM CDT
Nautical Twilight 5:21 AM CDT 9:50 PM CDT
Astronomical Twilight 4:40 AM CDT 10:32 PM CDT
Moon 2:42 PM CDT (5/8) 3:03 AM CDT (5/8)
Length of Visible Light 15h 14m
Length of Day
14h 13m
Waxing Gibbous, 65% of the Moon is Illuminated
May 8
Waxing Gibbous
May 14
Full
May 21
Last Quarter
May 28
New
Jun 5
First Quarter

Hourly Weather History & Observations

Time (CDT) Temp. Windchill Dew Point Humidity Pressure Visibility Wind Dir Wind Speed Gust Speed Precip Events Conditions
12:15 AM 58.6 °F - 52.2 °F 79% 29.67 in 10.0 mi ENE 10.4 mph 16.1 mph N/A   Clear
12:35 AM 58.3 °F - 51.6 °F 78% 29.67 in 10.0 mi NNE 10.4 mph 24.2 mph N/A   Clear
12:55 AM 58.5 °F - 50.9 °F 76% 29.66 in 10.0 mi NNE 16.1 mph 27.6 mph N/A   Clear
1:15 AM 58.3 °F - 50.9 °F 76% 29.68 in 10.0 mi NNE 15.0 mph 18.4 mph N/A   Clear
1:35 AM 57.7 °F - 51.1 °F 78% 29.68 in 10.0 mi NE 12.7 mph - N/A Thunderstorm Clear
1:55 AM 57.2 °F - 50.7 °F 79% 29.66 in 10.0 mi NNE 12.7 mph - N/A   Clear
2:15 AM 56.8 °F - 50.2 °F 78% 29.65 in 10.0 mi NNE 13.8 mph - N/A   Clear
2:35 AM 56.3 °F - 50.0 °F 79% 29.64 in 10.0 mi NE 12.7 mph 24.2 mph N/A   Clear
2:55 AM 55.4 °F - 50.0 °F 82% 29.64 in 10.0 mi NE 12.7 mph - N/A   Clear
3:15 AM 55.0 °F - 50.0 °F 83% 29.62 in 10.0 mi NNE 12.7 mph - N/A   Clear
3:35 AM 55.0 °F - 50.2 °F 84% 29.62 in 10.0 mi NNE 11.5 mph - N/A   Scattered Clouds
3:55 AM 55.0 °F - 50.0 °F 83% 29.61 in 10.0 mi NNE 18.4 mph 24.2 mph N/A   Scattered Clouds
4:15 AM 54.1 °F - 49.6 °F 85% 29.59 in 10.0 mi NE 24.2 mph - N/A   Clear
4:35 AM 53.8 °F - 49.8 °F 86% 29.59 in 10.0 mi NE 20.7 mph 28.8 mph N/A   Scattered Clouds
4:55 AM 53.8 °F - 50.0 °F 87% 29.59 in 10.0 mi NE 19.6 mph 27.6 mph N/A   Mostly Cloudy
5:15 AM 53.8 °F - 50.2 °F 88% 29.61 in 10.0 mi NE 13.8 mph - N/A   Mostly Cloudy
5:35 AM 52.7 °F - 49.6 °F 89% 29.58 in 7.0 mi NE 16.1 mph 26.5 mph N/A   Scattered Clouds
5:55 AM 52.2 °F - 49.6 °F 91% 29.57 in 7.0 mi NE 16.1 mph 23.0 mph N/A   Clear
6:15 AM 51.8 °F - 49.3 °F 91% 29.58 in 7.0 mi NE 11.5 mph 19.6 mph N/A   Scattered Clouds
6:35 AM 51.8 °F - 49.5 °F 92% 29.58 in 5.0 mi NE 11.5 mph - N/A   Scattered Clouds
6:55 AM 51.4 °F - 49.3 °F 92% 29.59 in 5.0 mi NE 11.5 mph - N/A   Clear
7:15 AM 51.8 °F - 49.6 °F 92% 29.60 in 5.0 mi NE 8.1 mph - N/A   Scattered Clouds
7:35 AM 51.8 °F - 49.8 °F 93% 29.60 in 4.0 mi NE 6.9 mph - N/A   Scattered Clouds
7:55 AM 53.1 °F - 50.7 °F 92% 29.61 in 5.0 mi NE 5.8 mph - N/A   Mostly Cloudy
8:15 AM 53.6 °F - 50.9 °F 91% 29.60 in 5.0 mi NE 5.8 mph - N/A   Overcast
8:35 AM 53.8 °F - 51.1 °F 91% 29.62 in 5.0 mi NW 6.9 mph - N/A   Mostly Cloudy
8:55 AM 53.8 °F - 51.1 °F 91% 29.63 in 5.0 mi NW 11.5 mph - N/A   Overcast
9:15 AM 53.6 °F - 50.5 °F 89% 29.63 in 5.0 mi NW 16.1 mph - N/A   Scattered Clouds
9:35 AM 52.3 °F - 48.9 °F 88% 29.64 in 5.0 mi WNW 23.0 mph 33.4 mph N/A   Mostly Cloudy
9:55 AM 49.3 °F - 46.6 °F 90% 29.65 in 5.0 mi NW 18.4 mph - N/A   Overcast
10:15 AM 48.4 °F - 45.7 °F 90% 29.66 in 7.0 mi NW 19.6 mph 25.3 mph N/A   Overcast
10:35 AM 48.4 °F - 45.5 °F 90% 29.67 in 7.0 mi NW 19.6 mph - N/A   Overcast
10:55 AM 48.2 °F - 45.1 °F 89% 29.69 in 7.0 mi WNW 19.6 mph 26.5 mph N/A   Overcast
11:15 AM 47.1 °F - 44.4 °F 90% 29.70 in 2.5 mi WNW 18.4 mph 28.8 mph N/A   Overcast
11:35 AM 44.6 °F 35.9 °F 42.4 °F 92% 29.73 in 2.0 mi WNW 23.0 mph 33.4 mph N/A   Overcast
12:15 PM 44.8 °F 35.9 °F 41.0 °F 87% 29.75 in 10.0 mi WNW 24.2 mph 34.5 mph N/A   Mostly Cloudy
12:35 PM 46.2 °F 37.1 °F 40.1 °F 79% 29.75 in 10.0 mi WNW 28.8 mph 34.5 mph N/A   Mostly Cloudy
12:55 PM 47.1 °F - 40.5 °F 78% 29.75 in 10.0 mi NW 26.5 mph 33.4 mph N/A   Mostly Cloudy
1:15 PM 48.7 °F - 41.2 °F 75% 29.76 in 10.0 mi NW 25.3 mph 29.9 mph N/A   Mostly Cloudy
1:35 PM 49.6 °F - 41.5 °F 74% 29.76 in 10.0 mi NW 25.3 mph 31.1 mph N/A   Scattered Clouds
1:55 PM 51.1 °F - 41.4 °F 69% 29.76 in 10.0 mi NW 20.7 mph 31.1 mph N/A   Scattered Clouds
2:15 PM 51.1 °F - 41.4 °F 69% 29.76 in 10.0 mi NW 23.0 mph 29.9 mph N/A   Mostly Cloudy
2:35 PM 51.6 °F - 41.0 °F 67% 29.77 in 10.0 mi NW 27.6 mph 33.4 mph N/A   Mostly Cloudy
2:55 PM 52.5 °F - 40.8 °F 64% 29.77 in 10.0 mi WNW 29.9 mph 34.5 mph N/A   Scattered Clouds
3:15 PM 52.9 °F - 40.8 °F 64% 29.77 in 10.0 mi NW 29.9 mph 34.5 mph N/A   Scattered Clouds
3:35 PM 51.6 °F - 40.3 °F 65% 29.78 in 10.0 mi WNW 27.6 mph 34.5 mph N/A   Scattered Clouds
3:55 PM 52.0 °F - 41.0 °F 66% 29.77 in 10.0 mi NW 25.3 mph 33.4 mph N/A   Scattered Clouds
4:15 PM 52.0 °F - 40.8 °F 66% 29.77 in 10.0 mi NNW 26.5 mph 33.4 mph N/A   Scattered Clouds
4:35 PM 53.2 °F - 41.7 °F 65% 29.77 in 10.0 mi NW 25.3 mph 32.2 mph N/A   Scattered Clouds
4:55 PM 54.5 °F - 41.4 °F 61% 29.78 in 10.0 mi NW 20.7 mph 32.2 mph N/A   Scattered Clouds
5:15 PM 53.2 °F - 40.5 °F 62% 29.78 in 10.0 mi NW 21.9 mph - N/A   Scattered Clouds
5:35 PM 54.1 °F - 41.0 °F 61% 29.80 in 10.0 mi NW 21.9 mph 26.5 mph N/A   Scattered Clouds
5:55 PM 53.4 °F - 40.6 °F 62% 29.80 in 10.0 mi NNW 20.7 mph 28.8 mph N/A   Clear
6:15 PM 53.1 °F - 40.3 °F 62% 29.82 in 10.0 mi NNW 20.7 mph 25.3 mph N/A   Clear
6:35 PM 53.2 °F - 40.1 °F 61% 29.83 in 10.0 mi NW 19.6 mph 26.5 mph N/A   Clear
6:55 PM 53.2 °F - 40.5 °F 62% 29.83 in 10.0 mi NW 20.7 mph 25.3 mph N/A   Clear
7:15 PM 51.8 °F - 39.7 °F 63% 29.84 in 10.0 mi NW 19.6 mph 25.3 mph N/A   Clear
7:55 PM 50.2 °F - 38.8 °F 65% 29.87 in 10.0 mi NNW 17.3 mph 24.2 mph N/A   Scattered Clouds
8:15 PM 50.0 °F - 38.5 °F 65% 29.88 in 10.0 mi NW 18.4 mph 21.9 mph N/A   Mostly Cloudy
8:35 PM 49.5 °F - 37.9 °F 65% 29.89 in 10.0 mi NW 17.3 mph 24.2 mph N/A   Overcast
8:55 PM 49.1 °F - 37.9 °F 65% 29.89 in 10.0 mi NNW 19.6 mph - N/A   Overcast
9:15 PM 48.4 °F - 37.9 °F 67% 29.90 in 10.0 mi NNW 17.3 mph - N/A   Overcast
9:35 PM 48.2 °F - 37.4 °F 66% 29.90 in 10.0 mi NW 16.1 mph - N/A   Overcast
9:55 PM 48.2 °F - 37.6 °F 67% 29.91 in 10.0 mi NW 17.3 mph - N/A   Overcast
10:15 PM 47.3 °F - 37.2 °F 68% 29.92 in 10.0 mi NW 13.8 mph - N/A   Overcast
10:35 PM 45.7 °F 39.1 °F 36.7 °F 71% 29.92 in 10.0 mi NW 15.0 mph 20.7 mph N/A   Mostly Cloudy
10:55 PM 44.6 °F 38.1 °F 36.3 °F 73% 29.92 in 10.0 mi NNW 13.8 mph - N/A   Mostly Cloudy
11:15 PM 44.6 °F 38.1 °F 36.5 °F 73% 29.92 in 10.0 mi NNW 13.8 mph - N/A   Mostly Cloudy
11:35 PM 44.2 °F 38.8 °F 36.9 °F 75% 29.92 in 10.0 mi NW 10.4 mph - N/A   Mostly Cloudy
11:55 PM 43.2 °F 36.2 °F 36.3 °F 77% 29.92 in 10.0 mi NW 13.8 mph - N/A   Mostly Cloudy